Location: Beulah
(33.1426°N, 83.0557°W)
Time: 03:28:42
(UTC+00:00)

Envisat - Pass Details

Date: 02 December 2021
Orbit: 764 x 766 km, 98.2° (Epoch: 23 January)

Event Time Altitude Azimuth Distance (km) Brightness Sun altitude
Rises 10:10:11 0° 17° (NNE) 3,236 6.3 -26.3°
Reaches altitude 10° 10:12:32 10° 21° (NNE) 2,306 5.6 -25.8°
Maximum altitude 10:17:33 58° 101° (E) 888 3.5 -24.8°
Drops below altitude 10° 10:22:31 10° 180° (S) 2,291 5.6 -23.8°
Sets 10:24:50 0° 184° (S) 3,213 6.3 -23.3°
